| time (UTC) | temp F | wind direction | speed knots | gust knots | rain 1hr in | rain 24hr in | rain mn in | humidity % | barometer mb |
| 20260906144612 | 78 | 86 | 0.0 | 2.6 | 0.00 | 0.01 | 0.00 | 82 | 1018.9 |
| 20260906143108 | 77 | 132 | 0.0 | 2.6 | 0.00 | 0.01 | 0.00 | 82 | 1019.0 |
| 20260906141552 | 76 | 90 | 0.0 | 3.5 | 0.00 | 0.01 | 0.00 | 84 | 1019.0 |
| 20260906140047 | 75 | 155 | 0.0 | 3.5 | 0.00 | 0.01 | 0.00 | 87 | 1018.9 |
| 20260906134545 | 74 | 146 | 0.0 | 4.3 | 0.00 | 0.01 | 0.00 | 89 | 1018.8 |
| 20260906133046 | 72 | 85 | 0.0 | 3.5 | 0.00 | 0.01 | 0.00 | 92 | 1018.9 |
| 20260906131538 | 71 | 68 | 0.9 | 7.8 | 0.00 | 0.01 | 0.00 | 95 | 1018.7 |
| 20260906130031 | 69 | 93 | 0.9 | 6.1 | 0.00 | 0.01 | 0.00 | 97 | 1018.7 |
| 20260906124528 | 69 | 82 | 0.0 | 0.9 | 0.00 | 0.01 | 0.00 | 98 | 1018.6 |
| 20260906123029 | 68 | 323 | 0.0 | 0.0 | 0.00 | 0.01 | 0.00 | 98 | 1018.5 |
| 20260906121525 | 67 | 322 | 0.0 | 0.0 | 0.00 | 0.01 | 0.00 | 99 | 1018.4 |
| 20260906120023 | 67 | 322 | 0.0 | 0.0 | 0.00 | 0.01 | 0.00 | 98 | 1018.1 |
| 20260906114538 | 67 | 322 | 0.0 | 0.0 | 0.00 | 0.01 | 0.00 | 98 | 1017.8 |
| 20260906113018 | 67 | 322 | 0.0 | 0.9 | 0.00 | 0.01 | 0.00 | 98 | 1017.6 |
| 20260906111517 | 67 | 322 | 0.0 | 1.7 | 0.00 | 0.01 | 0.00 | 98 | 1017.5 |
| 20260906110016 | 67 | 322 | 0.0 | 3.5 | 0.00 | 0.01 | 0.00 | 98 | 1017.4 |
| 20260906104516 | 67 | 263 | 0.0 | 0.0 | 0.00 | 0.01 | 0.00 | 98 | 1017.0 |
| 20260906103012 | 68 | 263 | 0.0 | 0.9 | 0.00 | 0.01 | 0.00 | 98 | 1017.0 |
| 20260906101511 | 68 | 263 | 0.0 | 0.0 | 0.00 | 0.01 | 0.00 | 97 | 1017.0 |
| 20260906100012 | 68 | 263 | 0.0 | 0.0 | 0.00 | 0.01 | 0.00 | 97 | 1017.0 |
| 20260906094525 | 68 | 263 | 0.0 | 0.0 | 0.00 | 0.01 | 0.00 | 97 | 1016.7 |
| 20260906093014 | 68 | 263 | 0.0 | 0.0 | 0.00 | 0.01 | 0.00 | 97 | 1016.8 |
| 20260906091506 | 69 | 263 | 0.0 | 2.6 | 0.00 | 0.01 | 0.00 | 96 | 1016.8 |
| 20260906090004 | 69 | 190 | 0.0 | 0.0 | 0.00 | 0.03 | 0.00 | 96 | 1016.6 |
| 20260906084503 | 69 | 190 | 0.0 | 0.0 | 0.00 | 0.03 | 0.00 | 96 | 1016.7 |
| 20260906083002 | 69 | 190 | 0.0 | 0.0 | 0.00 | 0.03 | 0.00 | 95 | 1016.5 |
| 20260906081602 | 70 | 190 | 0.0 | 0.0 | 0.00 | 0.03 | 0.00 | 95 | 1016.6 |
| 20260906080105 | 70 | 190 | 0.0 | 0.0 | 0.00 | 0.03 | 0.00 | 95 | 1016.7 |
| 20260906074558 | 70 | 190 | 0.0 | 0.0 | 0.00 | 0.03 | 0.00 | 94 | 1016.9 |
| 20260906073058 | 70 | 190 | 0.0 | 0.0 | 0.00 | 0.03 | 0.00 | 94 | 1016.8 |
| 20260906071557 | 70 | 190 | 0.0 | 0.0 | 0.00 | 0.03 | 0.00 | 93 | 1016.9 |
| 20260906070056 | 70 | 190 | 0.0 | 1.7 | 0.00 | 0.03 | 0.00 | 93 | 1016.9 |
| 20260906064554 | 71 | 102 | 0.0 | 0.0 | 0.00 | 0.03 | 0.00 | 93 | 1016.8 |
| 20260906063053 | 71 | 102 | 0.0 | 0.9 | 0.00 | 0.03 | 0.00 | 92 | 1016.9 |
| 20260906061552 | 71 | 92 | 0.0 | 0.9 | 0.00 | 0.03 | 0.00 | 92 | 1017.0 |
| 20260906060051 | 71 | 92 | 0.0 | 1.7 | 0.00 | 0.03 | 0.00 | 92 | 1016.9 |
| 20260906054550 | 71 | 92 | 0.0 | 0.9 | 0.00 | 0.03 | 0.00 | 92 | 1016.7 |
| 20260906053047 | 72 | 92 | 0.0 | 1.7 | 0.00 | 0.03 | 0.00 | 91 | 1016.6 |
| 20260906051555 | 72 | 92 | 0.0 | 3.5 | 0.00 | 0.03 | 0.00 | 91 | 1016.7 |
| 20260906050042 | 72 | 106 | 0.0 | 3.5 | 0.00 | 0.03 | 0.03 | 90 | 1016.5 |
| 20260906044541 | 72 | 109 | 0.0 | 0.9 | 0.00 | 0.03 | 0.03 | 90 | 1016.4 |
| 20260906043038 | 73 | 107 | 0.0 | 0.9 | 0.00 | 0.03 | 0.03 | 89 | 1016.2 |
| 20260906041537 | 73 | 52 | 0.0 | 0.9 | 0.00 | 0.03 | 0.03 | 89 | 1016.0 |
| 20260906040035 | 73 | 53 | 0.0 | 2.6 | 0.00 | 0.03 | 0.03 | 88 | 1015.8 |
| 20260906034534 | 73 | 156 | 0.0 | 1.7 | 0.00 | 0.03 | 0.03 | 88 | 1015.6 |
| 20260906033045 | 73 | 153 | 0.0 | 4.3 | 0.00 | 0.03 | 0.03 | 88 | 1015.7 |
| 20260906031538 | 73 | 80 | 0.0 | 5.2 | 0.00 | 0.03 | 0.03 | 88 | 1015.7 |
| 20260906030033 | 73 | 77 | 0.9 | 5.2 | 0.00 | 0.03 | 0.03 | 88 | 1015.6 |
| 20260906024545 | 73 | 101 | 0.0 | 3.5 | 0.00 | 0.03 | 0.03 | 88 | 1015.7 |
| 20260906023031 | 73 | 74 | 0.0 | 9.6 | 0.00 | 0.03 | 0.03 | 88 | 1015.5 |
| 20260906021529 | 73 | 52 | 0.9 | 6.1 | 0.00 | 0.03 | 0.03 | 89 | 1015.6 |
| 20260906020028 | 73 | 84 | 1.7 | 9.6 | 0.00 | 0.03 | 0.03 | 88 | 1015.5 |
| 20260906014539 | 73 | 317 | 0.0 | 5.2 | 0.00 | 0.03 | 0.03 | 88 | 1015.6 |
| 20260906013039 | 73 | 67 | 0.0 | 4.3 | 0.00 | 0.03 | 0.03 | 88 | 1015.3 |
| 20260906011526 | 73 | 82 | 0.0 | 5.2 | 0.00 | 0.03 | 0.03 | 88 | 1015.5 |
| 20260906010027 | 73 | 360 | 0.0 | 4.3 | 0.00 | 0.03 | 0.03 | 89 | 1015.5 |
| 20260906004522 | 74 | 78 | 0.9 | 3.5 | 0.00 | 0.03 | 0.03 | 88 | 1015.4 |
| 20260906003020 | 75 | 57 | 0.9 | 7.0 | 0.00 | 0.03 | 0.03 | 87 | 1015.3 |
| 20260906001521 | 76 | 83 | 1.7 | 7.8 | 0.00 | 0.03 | 0.03 | 85 | 1014.9 |
| 20260906000016 | 77 | 82 | 0.9 | 6.1 | 0.00 | 0.03 | 0.03 | 84 | 1014.4 |
| 20260905234515 | 78 | 74 | 1.7 | 7.0 | 0.00 | 0.03 | 0.03 | 83 | 1014.1 |
| 20260905233015 | 79 | 20 | 0.0 | 7.8 | 0.00 | 0.03 | 0.03 | 82 | 1014.2 |
| 20260905231514 | 80 | 136 | 0.0 | 2.6 | 0.00 | 0.03 | 0.03 | 81 | 1014.2 |
| 20260905230013 | 81 | 36 | 1.7 | 8.7 | 0.00 | 0.03 | 0.03 | 78 | 1013.8 |
| 20260905224513 | 82 | 63 | 0.0 | 4.3 | 0.00 | 0.03 | 0.03 | 76 | 1013.6 |
| 20260905223012 | 81 | 321 | 0.0 | 4.3 | 0.00 | 0.03 | 0.03 | 77 | 1013.6 |
| 20260905221511 | 82 | 71 | 0.9 | 3.5 | 0.00 | 0.03 | 0.03 | 78 | 1013.4 |
| 20260905220012 | 82 | 341 | 2.6 | 7.0 | 0.00 | 0.03 | 0.03 | 76 | 1013.5 |
| 20260905214511 | 82 | 349 | 0.9 | 5.2 | 0.00 | 0.03 | 0.03 | 79 | 1013.6 |
| 20260905213010 | 81 | 332 | 1.7 | 7.0 | 0.00 | 0.03 | 0.03 | 81 | 1013.6 |
| 20260905211510 | 82 | 86 | 0.9 | 7.0 | 0.00 | 0.03 | 0.03 | 80 | 1013.7 |
| 20260905210009 | 81 | 327 | 1.7 | 5.2 | 0.00 | 0.03 | 0.03 | 79 | 1013.5 |
| 20260905204508 | 82 | 89 | 0.9 | 5.2 | 0.00 | 0.03 | 0.03 | 80 | 1013.8 |
| 20260905203009 | 81 | 355 | 0.9 | 5.2 | 0.00 | 0.03 | 0.03 | 81 | 1014.1 |
| 20260905201508 | 81 | 92 | 0.0 | 7.0 | 0.00 | 0.03 | 0.03 | 82 | 1013.9 |
| 20260905200008 | 81 | 5 | 0.9 | 7.0 | 0.00 | 0.03 | 0.03 | 81 | 1014.0 |
| 20260905194508 | 83 | 88 | 1.7 | 4.3 | 0.00 | 0.03 | 0.03 | 78 | 1014.0 |
| 20260905193006 | 83 | 26 | 0.9 | 7.0 | 0.00 | 0.03 | 0.03 | 78 | 1013.8 |
| 20260905191505 | 84 | 75 | 0.9 | 7.0 | 0.00 | 0.03 | 0.03 | 79 | 1013.8 |
| 20260905190004 | 85 | 59 | 0.9 | 5.2 | 0.00 | 0.03 | 0.03 | 78 | 1013.9 |
| 20260905184505 | 84 | 98 | 0.9 | 5.2 | 0.00 | 0.03 | 0.03 | 78 | 1013.9 |
| 20260905183003 | 85 | 92 | 1.7 | 8.7 | 0.00 | 0.03 | 0.03 | 78 | 1013.9 |
| 20260905181501 | 85 | 78 | 0.9 | 5.2 | 0.00 | 0.03 | 0.03 | 79 | 1014.0 |
| 20260905180001 | 84 | 343 | 0.0 | 3.5 | 0.00 | 0.03 | 0.03 | 78 | 1013.9 |
| 20260905174605 | 84 | 103 | 0.9 | 3.5 | 0.00 | 0.03 | 0.03 | 79 | 1013.8 |
| 20260905173102 | 85 | 340 | 1.7 | 5.2 | 0.00 | 0.03 | 0.03 | 77 | 1013.9 |
| 20260905171559 | 86 | 69 | 0.0 | 3.5 | 0.00 | 0.03 | 0.03 | 78 | 1013.9 |
| 20260905170055 | 84 | 84 | 0.0 | 7.8 | 0.00 | 0.03 | 0.03 | 80 | 1014.0 |
| 20260905164554 | 84 | 355 | 1.7 | 5.2 | 0.00 | 0.03 | 0.03 | 81 | 1014.2 |
| 20260905163055 | 84 | 259 | 0.9 | 6.1 | 0.00 | 0.03 | 0.03 | 81 | 1014.2 |
| 20260905161559 | 82 | 10 | 0.9 | 3.5 | 0.00 | 0.03 | 0.03 | 82 | 1014.3 |
| 20260905160046 | 82 | 351 | 3.5 | 7.8 | 0.00 | 0.03 | 0.03 | 83 | 1014.2 |
| 20260905154543 | 82 | 330 | 1.7 | 5.2 | 0.01 | 0.03 | 0.03 | 83 | 1013.9 |
| 20260905153039 | 81 | 355 | 0.0 | 4.3 | 0.01 | 0.03 | 0.03 | 87 | 1013.9 |
| 20260905151534 | 80 | 336 | 0.9 | 4.3 | 0.01 | 0.03 | 0.03 | 87 | 1013.9 |
| 20260905150031 | 79 | 264 | 0.0 | 3.5 | 0.01 | 0.03 | 0.03 | 90 | 1013.9 |